Time,TemperatureF,DewpointF,PressureIn,WindDirection,WindDirectionDegrees,WindSpeedMPH,WindSpeedGustMPH,Humidity,HourlyPrecipIn,Conditions,Clouds,dailyrainin,SolarRadiationWatts/m^2,SoftwareType,DateUTC
2013-03-04 00:00:00,47.3,45.0,30.06,WNW,298,0.0,3.0,90,0.00,,,0.00,0,weatherlink.com 1.10,2013-03-04 08:00:00,
2013-03-04 00:15:00,47.5,45.0,30.08,NNW,333,0.0,5.0,89,0.00,,,0.00,0,weatherlink.com 1.10,2013-03-04 08:15:00,
2013-03-04 00:30:00,47.5,45.0,30.08,North,355,3.0,3.0,89,0.00,,,0.00,0,weatherlink.com 1.10,2013-03-04 08:30:00,
2013-03-04 00:45:00,47.3,45.0,30.08,North,360,0.0,4.0,90,0.00,,,0.00,0,weatherlink.com 1.10,2013-03-04 08:45:00,
2013-03-04 01:00:00,47.2,45.0,30.08,West,275,0.0,3.0,90,0.00,,,0.00,0,weatherlink.com 1.10,2013-03-04 09:00:00,
2013-03-04 01:15:00,47.0,44.0,30.08,West,275,0.0,4.0,90,0.00,,,0.00,0,weatherlink.com 1.10,2013-03-04 09:15:00,
2013-03-04 01:30:00,46.9,44.0,30.08,NW,305,2.0,2.0,90,0.00,,,0.00,0,weatherlink.com 1.10,2013-03-04 09:30:00,
2013-03-04 01:45:00,46.7,44.0,30.08,NNW,344,0.0,3.0,91,0.00,,,0.00,0,weatherlink.com 1.10,2013-03-04 09:45:00,
2013-03-04 02:00:00,46.4,44.0,30.08,NNW,346,0.0,5.0,92,0.00,,,0.00,0,weatherlink.com 1.10,2013-03-04 10:00:00,
2013-03-04 02:15:00,46.4,44.0,30.09,NNW,346,2.0,3.0,92,0.00,,,0.00,0,weatherlink.com 1.10,2013-03-04 10:15:00,
2013-03-04 02:30:00,46.2,44.0,30.09,NW,325,0.0,4.0,92,0.00,,,0.00,0,weatherlink.com 1.10,2013-03-04 10:30:00,
2013-03-04 02:45:00,45.9,44.0,30.08,North,355,0.0,2.0,93,0.00,,,0.00,0,weatherlink.com 1.10,2013-03-04 10:45:00,
2013-03-04 03:00:00,45.8,44.0,30.07,North,5,0.0,1.0,93,0.00,,,0.00,0,weatherlink.com 1.10,2013-03-04 11:00:00,
2013-03-04 03:15:00,45.8,44.0,30.07,NNW,333,0.0,3.0,94,0.00,,,0.00,0,weatherlink.com 1.10,2013-03-04 11:15:00,
2013-03-04 03:30:00,45.6,44.0,30.08,NW,313,4.0,5.0,93,0.00,,,0.00,0,weatherlink.com 1.10,2013-03-04 11:30:00,
2013-03-04 03:45:00,45.4,44.0,30.08,NNW,327,0.0,3.0,94,0.00,,,0.00,0,weatherlink.com 1.10,2013-03-04 11:45:00,
2013-03-04 04:00:00,45.4,44.0,30.09,NNE,29,1.0,3.0,94,0.00,,,0.00,0,weatherlink.com 1.10,2013-03-04 12:00:00,
2013-03-04 04:15:00,45.3,44.0,30.09,NE,37,2.0,3.0,94,0.00,,,0.00,0,weatherlink.com 1.10,2013-03-04 12:15:00,
2013-03-04 04:30:00,45.1,44.0,30.09,WNW,296,3.0,7.0,94,0.00,,,0.00,0,weatherlink.com 1.10,2013-03-04 12:30:00,
2013-03-04 04:45:00,45.1,44.0,30.09,ENE,78,0.0,4.0,95,0.00,,,0.00,0,weatherlink.com 1.10,2013-03-04 12:45:00,
2013-03-04 05:00:00,45.1,44.0,30.09,ENE,77,0.0,4.0,95,0.00,,,0.00,0,weatherlink.com 1.10,2013-03-04 13:00:00,
2013-03-04 05:16:00,44.9,44.0,30.10,NE,46,3.0,5.0,95,0.00,,,0.00,0,weatherlink.com 1.10,2013-03-04 13:16:00,
2013-03-04 05:31:00,44.9,44.0,30.10,ENE,61,2.0,4.0,95,0.00,,,0.00,0,weatherlink.com 1.10,2013-03-04 13:31:00,
2013-03-04 05:46:00,45.0,44.0,30.10,NE,52,2.0,4.0,95,0.00,,,0.00,0,weatherlink.com 1.10,2013-03-04 13:46:00,
2013-03-04 06:01:00,45.0,44.0,30.10,NE,46,0.0,3.0,95,0.00,,,0.00,0,weatherlink.com 1.10,2013-03-04 14:01:00,
2013-03-04 06:16:00,44.9,44.0,30.10,NE,46,0.0,1.0,95,0.00,,,0.00,0,weatherlink.com 1.10,2013-03-04 14:16:00,
2013-03-04 06:31:00,44.9,44.0,30.10,NE,50,0.0,1.0,95,0.00,,,0.00,0,weatherlink.com 1.10,2013-03-04 14:31:00,
2013-03-04 06:46:00,44.9,44.0,30.10,ENE,78,0.0,2.0,95,0.00,,,0.00,0,weatherlink.com 1.10,2013-03-04 14:46:00,
2013-03-04 07:01:00,44.8,44.0,30.10,ENE,78,0.0,2.0,95,0.00,,,0.00,7,weatherlink.com 1.10,2013-03-04 15:01:00,
2013-03-04 07:16:00,44.9,44.0,30.11,ENE,78,0.0,2.0,95,0.00,,,0.00,12,weatherlink.com 1.10,2013-03-04 15:16:00,
2013-03-04 07:31:00,45.2,44.0,30.11,ENE,78,0.0,1.0,95,0.00,,,0.00,21,weatherlink.com 1.10,2013-03-04 15:31:00,
2013-03-04 07:46:00,45.5,44.0,30.12,NW,313,2.0,4.0,95,0.00,,,0.00,30,weatherlink.com 1.10,2013-03-04 15:46:00,
2013-03-04 08:01:00,45.8,45.0,30.12,WNW,300,0.0,4.0,95,0.00,,,0.00,44,weatherlink.com 1.10,2013-03-04 16:01:00,
2013-03-04 08:16:00,45.8,44.0,30.13,North,355,0.0,4.0,94,0.00,,,0.00,44,weatherlink.com 1.10,2013-03-04 16:16:00,
2013-03-04 08:31:00,46.2,45.0,30.13,NE,40,4.0,4.0,94,0.00,,,0.00,56,weatherlink.com 1.10,2013-03-04 16:31:00,
2013-03-04 08:46:00,46.3,44.0,30.14,NE,42,4.0,6.0,91,0.00,,,0.00,79,weatherlink.com 1.10,2013-03-04 16:46:00,
2013-03-04 09:01:00,46.7,44.0,30.14,WNW,292,1.0,5.0,90,0.00,,,0.00,118,weatherlink.com 1.10,2013-03-04 17:01:00,
2013-03-04 09:16:00,46.8,44.0,30.14,NE,51,1.0,5.0,90,0.00,,,0.00,95,weatherlink.com 1.10,2013-03-04 17:16:00,
2013-03-04 09:31:00,46.8,44.0,30.14,NNW,338,2.0,6.0,90,0.00,,,0.00,111,weatherlink.com 1.10,2013-03-04 17:31:00,
2013-03-04 09:46:00,47.2,45.0,30.14,NE,40,4.0,5.0,90,0.00,,,0.00,100,weatherlink.com 1.10,2013-03-04 17:46:00,
2013-03-04 10:01:00,47.2,45.0,30.13,NW,311,3.0,4.0,90,0.00,,,0.00,123,weatherlink.com 1.10,2013-03-04 18:01:00,
2013-03-04 10:16:00,47.6,44.0,30.13,ENE,59,1.0,3.0,88,0.00,,,0.00,179,weatherlink.com 1.10,2013-03-04 18:16:00,
2013-03-04 10:31:00,47.9,44.0,30.13,NW,304,0.0,4.0,87,0.00,,,0.00,181,weatherlink.com 1.10,2013-03-04 18:31:00,
2013-03-04 10:46:00,48.4,45.0,30.14,NNE,30,0.0,4.0,87,0.00,,,0.00,176,weatherlink.com 1.10,2013-03-04 18:46:00,
2013-03-04 11:01:00,48.8,45.0,30.13,WNW,293,1.0,5.0,86,0.00,,,0.00,181,weatherlink.com 1.10,2013-03-04 19:01:00,
2013-03-04 11:16:00,49.4,45.0,30.13,NW,311,4.0,6.0,84,0.00,,,0.00,220,weatherlink.com 1.10,2013-03-04 19:16:00,
2013-03-04 11:31:00,49.9,45.0,30.14,NNW,336,3.0,6.0,83,0.00,,,0.00,283,weatherlink.com 1.10,2013-03-04 19:31:00,
2013-03-04 11:46:00,50.0,45.0,30.14,NE,42,2.0,7.0,83,0.00,,,0.00,202,weatherlink.com 1.10,2013-03-04 19:46:00,
2013-03-04 12:01:00,50.4,45.0,30.14,NW,323,5.0,6.0,82,0.00,,,0.00,279,weatherlink.com 1.10,2013-03-04 20:01:00,
2013-03-04 12:16:00,51.1,45.0,30.13,North,9,0.0,7.0,80,0.00,,,0.00,357,weatherlink.com 1.10,2013-03-04 20:16:00,
2013-03-04 12:31:00,51.8,46.0,30.11,WNW,284,1.0,5.0,79,0.00,,,0.00,434,weatherlink.com 1.10,2013-03-04 20:31:00,
2013-03-04 12:46:00,53.6,46.0,30.10,WSW,241,2.0,6.0,75,0.00,,,0.00,793,weatherlink.com 1.10,2013-03-04 20:46:00,
2013-03-04 13:02:00,54.8,46.0,30.09,West,277,0.0,4.0,72,0.00,,,0.00,735,weatherlink.com 1.10,2013-03-04 21:02:00,
2013-03-04 13:17:00,55.4,46.0,30.09,WSW,243,2.0,5.0,71,0.00,,,0.00,654,weatherlink.com 1.10,2013-03-04 21:17:00,
2013-03-04 13:32:00,55.5,47.0,30.09,North,350,4.0,6.0,72,0.00,,,0.00,643,weatherlink.com 1.10,2013-03-04 21:32:00,
2013-03-04 13:47:00,55.7,47.0,30.07,NNE,17,3.0,6.0,73,0.00,,,0.00,287,weatherlink.com 1.10,2013-03-04 21:47:00,
2013-03-04 14:02:00,56.4,47.0,30.08,NNE,28,5.0,8.0,71,0.00,,,0.00,183,weatherlink.com 1.10,2013-03-04 22:02:00,
2013-03-04 14:17:00,56.3,47.0,30.08,ENE,61,5.0,13.0,71,0.00,,,0.00,232,weatherlink.com 1.10,2013-03-04 22:17:00,
2013-03-04 14:32:00,55.7,46.0,30.08,WNW,301,3.0,11.0,71,0.00,,,0.00,74,weatherlink.com 1.10,2013-03-04 22:32:00,
2013-03-04 14:47:00,55.0,46.0,30.09,NNW,338,11.0,11.0,71,0.00,,,0.00,81,weatherlink.com 1.10,2013-03-04 22:47:00,
2013-03-04 15:02:00,53.2,44.0,30.09,NNW,334,4.0,11.0,72,0.00,,,0.00,392,weatherlink.com 1.10,2013-03-04 23:02:00,
2013-03-04 15:17:00,52.7,44.0,30.09,NNW,343,7.0,13.0,71,0.00,,,0.00,424,weatherlink.com 1.10,2013-03-04 23:17:00,
2013-03-04 15:32:00,52.5,43.0,30.08,North,355,9.0,12.0,71,0.00,,,0.00,388,weatherlink.com 1.10,2013-03-04 23:32:00,
2013-03-04 15:47:00,52.7,44.0,30.08,NW,312,6.0,9.0,71,0.00,,,0.00,343,weatherlink.com 1.10,2013-03-04 23:47:00,
2013-03-04 16:02:00,52.3,43.0,30.07,NNE,19,3.0,11.0,71,0.00,,,0.00,301,weatherlink.com 1.10,2013-03-05 00:02:00,
2013-03-04 16:17:00,52.8,43.0,30.07,WNW,288,6.0,11.0,70,0.00,,,0.00,146,weatherlink.com 1.10,2013-03-05 00:17:00,
2013-03-04 16:32:00,51.9,43.0,30.07,NNE,31,4.0,10.0,71,0.00,,,0.00,116,weatherlink.com 1.10,2013-03-05 00:32:00,
2013-03-04 16:47:00,51.2,42.0,30.07,North,355,2.0,11.0,72,0.00,,,0.00,155,weatherlink.com 1.10,2013-03-05 00:47:00,
2013-03-04 17:02:00,50.6,42.0,30.06,North,5,3.0,11.0,73,0.00,,,0.00,105,weatherlink.com 1.10,2013-03-05 01:02:00,
2013-03-04 17:17:00,50.4,42.0,30.06,NW,321,7.0,9.0,73,0.00,,,0.00,60,weatherlink.com 1.10,2013-03-05 01:17:00,
2013-03-04 17:32:00,49.7,42.0,30.06,NW,318,7.0,9.0,75,0.00,,,0.00,30,weatherlink.com 1.10,2013-03-05 01:32:00,
2013-03-04 17:47:00,48.8,42.0,30.06,NNW,329,3.0,9.0,76,0.00,,,0.00,18,weatherlink.com 1.10,2013-03-05 01:47:00,
2013-03-04 18:02:00,48.0,41.0,30.06,NNW,330,2.0,9.0,78,0.00,,,0.00,7,weatherlink.com 1.10,2013-03-05 02:02:00,
2013-03-04 18:17:00,47.4,41.0,30.06,NW,317,4.0,8.0,79,0.00,,,0.00,0,weatherlink.com 1.10,2013-03-05 02:17:00,
2013-03-04 18:32:00,46.9,41.0,30.06,NW,319,3.0,7.0,80,0.00,,,0.00,0,weatherlink.com 1.10,2013-03-05 02:32:00,
2013-03-04 18:47:00,46.5,41.0,30.06,WNW,296,4.0,5.0,81,0.00,,,0.00,0,weatherlink.com 1.10,2013-03-05 02:47:00,
2013-03-04 19:02:00,46.2,41.0,30.06,NNW,340,1.0,5.0,81,0.00,,,0.00,0,weatherlink.com 1.10,2013-03-05 03:02:00,
2013-03-04 19:17:00,45.8,41.0,30.06,NNE,25,0.0,2.0,82,0.00,,,0.00,0,weatherlink.com 1.10,2013-03-05 03:17:00,
2013-03-04 19:32:00,45.5,41.0,30.06,NNW,328,1.0,1.0,83,0.00,,,0.00,0,weatherlink.com 1.10,2013-03-05 03:32:00,
2013-03-04 19:47:00,45.3,40.0,30.06,NW,320,0.0,2.0,83,0.00,,,0.00,0,weatherlink.com 1.10,2013-03-05 03:47:00,
2013-03-04 20:02:00,44.3,39.0,30.06,North,349,0.0,1.0,83,0.00,,,0.00,0,weatherlink.com 1.10,2013-03-05 04:02:00,
2013-03-04 20:17:00,42.5,38.0,30.06,North,349,0.0,1.0,85,0.00,,,0.00,0,weatherlink.com 1.10,2013-03-05 04:17:00,
2013-03-04 20:32:00,41.5,38.0,30.06,North,349,0.0,0.0,87,0.00,,,0.00,0,weatherlink.com 1.10,2013-03-05 04:32:00,
2013-03-04 20:47:00,40.7,38.0,30.06,North,349,0.0,0.0,88,0.00,,,0.00,0,weatherlink.com 1.10,2013-03-05 04:47:00,
2013-03-04 21:02:00,40.5,38.0,30.07,North,349,0.0,0.0,90,0.00,,,0.00,0,weatherlink.com 1.10,2013-03-05 05:02:00,
2013-03-04 21:17:00,40.0,37.0,30.07,North,349,0.0,1.0,89,0.00,,,0.00,0,weatherlink.com 1.10,2013-03-05 05:17:00,
2013-03-04 21:32:00,39.5,37.0,30.07,North,349,0.0,0.0,90,0.00,,,0.00,0,weatherlink.com 1.10,2013-03-05 05:32:00,
2013-03-04 21:47:00,39.1,37.0,30.07,North,349,0.0,0.0,91,0.00,,,0.00,0,weatherlink.com 1.10,2013-03-05 05:47:00,
2013-03-04 22:02:00,39.2,37.0,30.06,North,349,0.0,0.0,92,0.00,,,0.00,0,weatherlink.com 1.10,2013-03-05 06:02:00,
2013-03-04 22:17:00,38.8,36.0,30.06,North,349,0.0,0.0,91,0.00,,,0.00,0,weatherlink.com 1.10,2013-03-05 06:17:00,
2013-03-04 22:32:00,38.5,36.0,30.07,North,349,0.0,0.0,92,0.00,,,0.00,0,weatherlink.com 1.10,2013-03-05 06:32:00,
2013-03-04 22:47:00,38.6,37.0,30.07,NE,34,0.0,2.0,92,0.00,,,0.00,0,weatherlink.com 1.10,2013-03-05 06:47:00,
2013-03-04 23:02:00,39.3,37.0,30.06,NNE,33,0.0,1.0,92,0.00,,,0.00,0,weatherlink.com 1.10,2013-03-05 07:02:00,
2013-03-04 23:17:00,39.3,37.0,30.06,NE,34,0.0,0.0,92,0.00,,,0.00,0,weatherlink.com 1.10,2013-03-05 07:17:00,
2013-03-04 23:32:00,39.0,37.0,30.05,NNE,33,0.0,1.0,92,0.00,,,0.00,0,weatherlink.com 1.10,2013-03-05 07:32:00,
2013-03-04 23:47:00,38.5,36.0,30.05,NNE,33,0.0,0.0,91,0.00,,,0.00,0,weatherlink.com 1.10,2013-03-05 07:47:00,